JOK455 ENVA-ENEV

Flight info

Callsign JOK455
Flight time 1h 19m
Altitude 17000
Route NIGEX DCT PENNO
Aircraft AT76/M-SDFGIRY/S

Departure

Time 2026-04-28 15:24
Airport Trondheim Airport, Værnes (ENVA)

Arrival

Time 2026-04-28 16:43
Airport Harstad/Narvik Airport (ENEV)
Time Latitude Longitude Altitude Speed Heading
2026-04-28 15:24 63.70601 11.06753 8173 ft 196 kts 30°
2026-04-28 15:24 63.71784 11.08320 8402 ft 197 kts 30°
2026-04-28 15:24 63.72966 11.09888 8632 ft 198 kts 30°
2026-04-28 15:24 63.74172 11.11483 8871 ft 199 kts 30°
2026-04-28 15:25 63.75365 11.13066 9072 ft 199 kts 30°
2026-04-28 15:25 63.76563 11.14654 9290 ft 200 kts 30°
2026-04-28 15:25 63.77796 11.16295 9519 ft 200 kts 30°
2026-04-28 15:25 63.78999 11.17896 9731 ft 201 kts 30°
2026-04-28 15:26 63.80205 11.19504 9942 ft 202 kts 30°
2026-04-28 15:26 63.81419 11.21107 10176 ft 202 kts 30°
2026-04-28 15:26 63.82639 11.22716 10365 ft 203 kts 30°
2026-04-28 15:26 63.83864 11.24319 10551 ft 204 kts 30°
2026-04-28 15:27 63.85093 11.25923 10732 ft 204 kts 30°
2026-04-28 15:27 63.86324 11.27544 10895 ft 205 kts 30°
2026-04-28 15:27 63.87554 11.29179 11135 ft 205 kts 30°
2026-04-28 15:27 63.88805 11.30848 11374 ft 206 kts 30°
2026-04-28 15:28 63.90042 11.32508 11564 ft 207 kts 30°
2026-04-28 15:28 63.91299 11.34195 11720 ft 207 kts 30°
2026-04-28 15:28 63.92132 11.35318 11850 ft 208 kts 31°
2026-04-28 15:28 63.93418 11.37046 12031 ft 208 kts 31°
2026-04-28 15:29 63.94661 11.38725 12237 ft 209 kts 30°
2026-04-28 15:29 63.95950 11.40474 12397 ft 210 kts 30°
2026-04-28 15:29 63.97223 11.42185 12572 ft 210 kts 31°
2026-04-28 15:29 63.98522 11.43943 12783 ft 211 kts 30°
2026-04-28 15:30 63.99777 11.45638 13010 ft 211 kts 31°
2026-04-28 15:30 64.01061 11.47380 13177 ft 212 kts 31°
2026-04-28 15:30 64.02330 11.49103 13372 ft 213 kts 31°
2026-04-28 15:30 64.03603 11.50835 13559 ft 213 kts 31°
2026-04-28 15:31 64.04879 11.52575 13695 ft 214 kts 31°
2026-04-28 15:31 64.06160 11.54312 13907 ft 214 kts 30°
2026-04-28 15:31 64.07439 11.56059 14075 ft 215 kts 31°
2026-04-28 15:31 64.08726 11.57812 14249 ft 215 kts 31°
2026-04-28 15:32 64.10016 11.59574 14381 ft 216 kts 31°
2026-04-28 15:32 64.11308 11.61339 14503 ft 217 kts 31°
2026-04-28 15:32 64.12603 11.63112 14663 ft 217 kts 31°
2026-04-28 15:32 64.13899 11.64890 14790 ft 217 kts 31°
2026-04-28 15:33 64.15217 11.66694 14954 ft 218 kts 31°
2026-04-28 15:33 64.16536 11.68509 15085 ft 219 kts 31°
2026-04-28 15:33 64.17839 11.70301 15206 ft 219 kts 31°
2026-04-28 15:33 64.19131 11.72079 15354 ft 219 kts 31°
2026-04-28 15:34 64.20440 11.73884 15482 ft 220 kts 31°
2026-04-28 15:34 64.21749 11.75692 15627 ft 220 kts 31°
2026-04-28 15:34 64.22994 11.77413 15741 ft 221 kts 31°
2026-04-28 15:34 64.24259 11.79159 15878 ft 221 kts 31°
2026-04-28 15:35 64.25704 11.81160 15987 ft 222 kts 31°
2026-04-28 15:35 64.28350 11.84825 16215 ft 222 kts 31°
2026-04-28 15:35 64.29676 11.86664 16315 ft 223 kts 31°
2026-04-28 15:36 64.31006 11.88512 16446 ft 223 kts 31°
2026-04-28 15:36 64.32319 11.90342 16567 ft 224 kts 31°
2026-04-28 15:36 64.33651 11.92195 16700 ft 224 kts 31°
2026-04-28 15:36 64.34991 11.94066 16798 ft 226 kts 31°
2026-04-28 15:37 64.36321 11.95925 16854 ft 228 kts 31°
2026-04-28 15:37 64.37700 11.97858 16912 ft 229 kts 31°
2026-04-28 15:37 64.39081 11.99784 16964 ft 231 kts 31°
2026-04-28 15:37 64.40013 12.00928 16979 ft 232 kts 24°
2026-04-28 15:38 64.42050 12.02673 16990 ft 234 kts 18°
2026-04-28 15:38 64.43613 12.03860 16995 ft 239 kts 18°
2026-04-28 15:38 64.45206 12.05108 16998 ft 244 kts 19°
2026-04-28 15:38 64.46806 12.06459 17000 ft 246 kts 20°
2026-04-28 15:39 64.48433 12.07867 17004 ft 248 kts 20°
2026-04-28 15:39 64.50044 12.09260 16999 ft 251 kts 20°
2026-04-28 15:39 64.51673 12.10677 17000 ft 250 kts 20°
2026-04-28 15:39 64.53306 12.12087 16997 ft 250 kts 20°
2026-04-28 15:40 64.54920 12.13484 16997 ft 251 kts 20°
2026-04-28 15:40 64.56550 12.14900 17001 ft 251 kts 20°
2026-04-28 15:40 64.58189 12.16329 17001 ft 250 kts 20°
2026-04-28 15:40 64.59818 12.17743 17001 ft 252 kts 20°
2026-04-28 15:41 64.61393 12.19115 17000 ft 252 kts 20°
2026-04-28 15:41 64.63052 12.20562 16999 ft 252 kts 20°
2026-04-28 15:41 64.64741 12.22039 17001 ft 252 kts 20°
2026-04-28 15:41 64.66258 12.23366 16998 ft 251 kts 20°
2026-04-28 15:42 64.67980 12.24876 16999 ft 251 kts 20°
2026-04-28 15:42 64.69635 12.26326 17001 ft 251 kts 20°
2026-04-28 15:42 64.71271 12.27765 17001 ft 252 kts 20°
2026-04-28 15:42 64.72785 12.29094 16997 ft 252 kts 20°
2026-04-28 15:43 64.74481 12.30588 16997 ft 251 kts 20°
2026-04-28 15:43 64.76186 12.32091 17001 ft 252 kts 20°
2026-04-28 15:43 64.77808 12.33524 16999 ft 253 kts 20°
2026-04-28 15:43 64.79452 12.34978 17002 ft 252 kts 20°
2026-04-28 15:44 64.81095 12.36431 16998 ft 252 kts 20°
2026-04-28 15:44 64.82733 12.37883 16998 ft 252 kts 20°
2026-04-28 15:44 64.84373 12.39338 17000 ft 252 kts 20°
2026-04-28 15:44 64.86022 12.40803 17000 ft 254 kts 20°
2026-04-28 15:45 64.87678 12.42279 17002 ft 254 kts 20°
2026-04-28 15:45 64.89329 12.43748 17000 ft 253 kts 20°
2026-04-28 15:45 64.90976 12.45217 17005 ft 253 kts 20°
2026-04-28 15:45 64.92600 12.46669 16999 ft 253 kts 20°
2026-04-28 15:46 64.94244 12.48140 17001 ft 253 kts 20°
2026-04-28 15:46 64.95889 12.49613 16999 ft 253 kts 20°
2026-04-28 15:46 64.97529 12.51083 17001 ft 252 kts 20°
2026-04-28 15:46 64.99165 12.52552 16998 ft 252 kts 20°
2026-04-28 15:47 65.00803 12.54025 16997 ft 252 kts 20°
2026-04-28 15:47 65.02440 12.55502 17000 ft 252 kts 20°
2026-04-28 15:47 65.04085 12.56982 17002 ft 254 kts 20°
2026-04-28 15:47 65.05710 12.58452 17003 ft 253 kts 20°
2026-04-28 15:48 65.07380 12.59962 17001 ft 254 kts 20°
2026-04-28 15:48 65.09004 12.61433 17001 ft 253 kts 20°
2026-04-28 15:48 65.10651 12.62927 16998 ft 253 kts 21°
2026-04-28 15:48 65.12297 12.64420 17003 ft 253 kts 21°
2026-04-28 15:49 65.13947 12.65918 17003 ft 255 kts 21°
2026-04-28 15:49 65.15603 12.67426 16998 ft 254 kts 21°
2026-04-28 15:49 65.17256 12.68931 17001 ft 255 kts 21°
2026-04-28 15:49 65.18911 12.70442 17003 ft 255 kts 21°
2026-04-28 15:50 65.20572 12.71961 16996 ft 255 kts 21°
2026-04-28 15:50 65.22221 12.73468 16997 ft 253 kts 21°
2026-04-28 15:50 65.23863 12.74972 16999 ft 253 kts 21°
2026-04-28 15:50 65.25504 12.76476 17003 ft 253 kts 21°
2026-04-28 15:51 65.27145 12.77984 16999 ft 252 kts 21°
2026-04-28 15:51 65.28754 12.79465 16999 ft 252 kts 21°
2026-04-28 15:51 65.30388 12.80970 16997 ft 251 kts 21°
2026-04-28 15:51 65.32024 12.82479 17003 ft 252 kts 21°
2026-04-28 15:52 65.33661 12.83989 16995 ft 253 kts 21°
2026-04-28 15:52 65.35321 12.85526 17002 ft 253 kts 21°
2026-04-28 15:52 65.36959 12.87041 16999 ft 253 kts 21°
2026-04-28 15:52 65.38601 12.88563 17000 ft 252 kts 21°
2026-04-28 15:53 65.40217 12.90064 17002 ft 253 kts 21°
2026-04-28 15:53 65.41867 12.91598 17001 ft 254 kts 21°
2026-04-28 15:53 65.43513 12.93131 16998 ft 253 kts 21°
2026-04-28 15:53 65.45152 12.94660 16996 ft 253 kts 21°
2026-04-28 15:54 65.46791 12.96190 16999 ft 252 kts 21°
2026-04-28 15:54 65.48433 12.97725 17003 ft 254 kts 21°
2026-04-28 15:54 65.50101 12.99287 17000 ft 254 kts 21°
2026-04-28 15:54 65.51741 13.00824 16999 ft 253 kts 21°
2026-04-28 15:55 65.53360 13.02343 17001 ft 254 kts 21°
2026-04-28 15:55 65.55004 13.03887 16999 ft 254 kts 21°
2026-04-28 15:55 65.56644 13.05433 16997 ft 253 kts 21°
2026-04-28 15:55 65.58278 13.06971 16998 ft 252 kts 21°
2026-04-28 15:56 65.59937 13.08537 17001 ft 252 kts 21°
2026-04-28 15:56 65.61568 13.10078 17000 ft 251 kts 21°
2026-04-28 15:56 65.63182 13.11605 17000 ft 251 kts 21°
2026-04-28 15:56 65.64817 13.13152 16998 ft 250 kts 21°
2026-04-28 15:57 65.66442 13.14695 17000 ft 251 kts 21°
2026-04-28 15:57 65.68067 13.16238 17002 ft 250 kts 21°
2026-04-28 15:57 65.69687 13.17778 17000 ft 250 kts 21°
2026-04-28 15:57 65.71305 13.19320 16999 ft 250 kts 21°
2026-04-28 15:58 65.72918 13.20858 16999 ft 249 kts 21°
2026-04-28 15:58 65.74535 13.22402 17001 ft 249 kts 21°
2026-04-28 15:58 65.76151 13.23949 16999 ft 249 kts 21°
2026-04-28 15:58 65.77767 13.25495 17002 ft 250 kts 21°
2026-04-28 15:59 65.79367 13.27031 17000 ft 251 kts 21°
2026-04-28 15:59 65.80462 13.28085 17000 ft 250 kts 21°
2026-04-28 15:59 65.82629 13.30167 17002 ft 250 kts 21°
2026-04-28 15:59 65.84239 13.31715 17002 ft 252 kts 21°
2026-04-28 16:00 65.85868 13.33288 16999 ft 253 kts 21°
2026-04-28 16:00 65.87504 13.34867 17001 ft 253 kts 21°
2026-04-28 16:00 65.89148 13.36457 16997 ft 254 kts 21°
2026-04-28 16:00 65.90790 13.38049 16999 ft 254 kts 21°
2026-04-28 16:01 65.92434 13.39645 17000 ft 253 kts 21°
2026-04-28 16:01 65.94072 13.41235 16999 ft 254 kts 21°
2026-04-28 16:01 65.95714 13.42827 17000 ft 254 kts 21°
2026-04-28 16:01 65.97327 13.44401 17001 ft 252 kts 21°
2026-04-28 16:02 65.98978 13.46006 17001 ft 252 kts 21°
2026-04-28 16:02 66.00588 13.47578 17004 ft 252 kts 21°
2026-04-28 16:02 66.02214 13.49170 16997 ft 252 kts 21°
2026-04-28 16:02 66.03843 13.50765 16996 ft 251 kts 21°
2026-04-28 16:03 66.05467 13.52357 16998 ft 251 kts 21°
2026-04-28 16:03 66.07086 13.53947 16998 ft 251 kts 21°
2026-04-28 16:03 66.08163 13.55003 16999 ft 252 kts 21°
2026-04-28 16:03 66.09791 13.56607 17002 ft 251 kts 21°
2026-04-28 16:04 66.11415 13.58207 17000 ft 251 kts 21°
2026-04-28 16:04 66.13038 13.59807 17000 ft 251 kts 21°
2026-04-28 16:04 66.14653 13.61404 17002 ft 251 kts 21°
2026-04-28 16:04 66.16275 13.63009 17000 ft 252 kts 21°
2026-04-28 16:05 66.17900 13.64618 16998 ft 251 kts 21°
2026-04-28 16:05 66.19524 13.66230 17000 ft 251 kts 22°
2026-04-28 16:05 66.21145 13.67840 17004 ft 251 kts 21°
2026-04-28 16:05 66.22774 13.69460 17000 ft 254 kts 22°
2026-04-28 16:06 66.24412 13.71094 16998 ft 253 kts 22°
2026-04-28 16:06 66.26040 13.72718 16999 ft 252 kts 22°
2026-04-28 16:06 66.27689 13.74364 17001 ft 251 kts 22°
2026-04-28 16:06 66.29299 13.75975 16999 ft 251 kts 22°
2026-04-28 16:07 66.30913 13.77594 17001 ft 252 kts 22°
2026-04-28 16:07 66.32560 13.79247 17000 ft 252 kts 22°
2026-04-28 16:07 66.35793 13.82499 16999 ft 252 kts 22°
2026-04-28 16:08 66.37418 13.84135 16999 ft 252 kts 22°
2026-04-28 16:08 66.39043 13.85773 16999 ft 252 kts 22°
2026-04-28 16:08 66.40666 13.87413 17000 ft 252 kts 22°
2026-04-28 16:09 66.43912 13.90697 17000 ft 252 kts 22°
2026-04-28 16:09 66.45541 13.92352 17003 ft 252 kts 22°
2026-04-28 16:09 66.47169 13.94006 17002 ft 253 kts 22°
2026-04-28 16:10 66.50429 13.97325 16999 ft 254 kts 22°
2026-04-28 16:10 66.52068 13.98999 16998 ft 255 kts 22°
2026-04-28 16:10 66.55342 14.02346 17000 ft 254 kts 22°
2026-04-28 16:11 66.58599 14.05686 16998 ft 252 kts 22°
2026-04-28 16:11 66.61839 14.09016 17002 ft 251 kts 22°
2026-04-28 16:12 66.65070 14.12347 17000 ft 251 kts 22°
2026-04-28 16:12 66.66686 14.14019 17000 ft 250 kts 22°
2026-04-28 16:13 66.69927 14.17375 16999 ft 252 kts 22°
2026-04-28 16:13 66.71553 14.19065 17001 ft 252 kts 22°
2026-04-28 16:13 66.74792 14.22431 16999 ft 251 kts 22°
2026-04-28 16:14 66.78036 14.25815 17000 ft 252 kts 22°
2026-04-28 16:14 66.81279 14.29206 17002 ft 253 kts 22°
2026-04-28 16:15 66.84513 14.32600 17000 ft 252 kts 22°
2026-04-28 16:15 66.86138 14.34308 17000 ft 252 kts 22°
2026-04-28 16:15 66.87763 14.36019 16998 ft 253 kts 22°
2026-04-28 16:16 66.91032 14.39469 17004 ft 254 kts 22°
2026-04-28 16:16 66.92660 14.41190 17002 ft 254 kts 22°
2026-04-28 16:17 66.95938 14.44668 17006 ft 253 kts 22°
2026-04-28 16:17 66.97541 14.46368 17002 ft 254 kts 22°
2026-04-28 16:17 66.99179 14.48105 17008 ft 256 kts 22°
2026-04-28 16:17 67.00826 14.49861 16994 ft 256 kts 22°
2026-04-28 16:18 67.02468 14.51614 16997 ft 255 kts 22°
2026-04-28 16:18 67.04106 14.53365 16997 ft 255 kts 22°
2026-04-28 16:18 67.05742 14.55115 17000 ft 254 kts 22°
2026-04-28 16:18 67.07370 14.56859 16999 ft 254 kts 22°
2026-04-28 16:19 67.09021 14.58630 17001 ft 253 kts 22°
2026-04-28 16:19 67.10633 14.60361 17003 ft 254 kts 22°
2026-04-28 16:19 67.12271 14.62125 17002 ft 256 kts 22°
2026-04-28 16:19 67.13941 14.63926 16999 ft 256 kts 22°
2026-04-28 16:20 67.15585 14.65700 17004 ft 256 kts 22°
2026-04-28 16:20 67.17228 14.67475 16998 ft 256 kts 22°
2026-04-28 16:20 67.18870 14.69253 16997 ft 255 kts 22°
2026-04-28 16:20 67.20505 14.71026 17001 ft 254 kts 22°
2026-04-28 16:21 67.22140 14.72800 16999 ft 255 kts 22°
2026-04-28 16:21 67.23775 14.74580 16999 ft 254 kts 22°
2026-04-28 16:21 67.25387 14.76335 16999 ft 253 kts 23°
2026-04-28 16:21 67.27009 14.78104 17000 ft 253 kts 22°
2026-04-28 16:22 67.28625 14.79869 17000 ft 252 kts 22°
2026-04-28 16:22 67.30244 14.81640 17001 ft 253 kts 23°
2026-04-28 16:22 67.31862 14.83413 17005 ft 253 kts 23°
2026-04-28 16:22 67.33482 14.85189 17002 ft 253 kts 23°
2026-04-28 16:23 67.35101 14.86970 16998 ft 252 kts 22°
2026-04-28 16:23 67.36723 14.88754 16999 ft 254 kts 23°
2026-04-28 16:23 67.38349 14.90546 16998 ft 255 kts 23°
2026-04-28 16:23 67.40000 14.92367 17003 ft 255 kts 22°
2026-04-28 16:24 67.41615 14.94154 16999 ft 255 kts 23°
2026-04-28 16:24 67.43248 14.95961 16999 ft 255 kts 22°
2026-04-28 16:24 67.44878 14.97768 16998 ft 255 kts 22°
2026-04-28 16:24 67.46512 14.99583 17001 ft 255 kts 23°
2026-04-28 16:25 67.48169 15.01424 17000 ft 255 kts 23°
2026-04-28 16:25 67.49778 15.03216 16999 ft 255 kts 23°
2026-04-28 16:25 67.51404 15.05029 16999 ft 254 kts 23°
2026-04-28 16:25 67.53032 15.06846 16999 ft 254 kts 23°
2026-04-28 16:26 67.54660 15.08667 17002 ft 255 kts 23°
2026-04-28 16:26 67.56285 15.10489 16999 ft 254 kts 23°
2026-04-28 16:26 67.57912 15.12310 17001 ft 255 kts 23°
2026-04-28 16:26 67.59543 15.14150 17000 ft 255 kts 23°
2026-04-28 16:27 67.61192 15.16003 17005 ft 254 kts 23°
2026-04-28 16:27 67.62822 15.17840 16999 ft 254 kts 23°
2026-04-28 16:27 67.66075 15.21515 16998 ft 254 kts 23°
2026-04-28 16:28 67.67722 15.23382 17000 ft 255 kts 23°
2026-04-28 16:28 67.68802 15.24605 16999 ft 255 kts 23°
2026-04-28 16:28 67.70983 15.27089 17000 ft 254 kts 23°
2026-04-28 16:28 67.72604 15.28928 16999 ft 254 kts 23°
2026-04-28 16:29 67.75834 15.32613 16996 ft 252 kts 23°
2026-04-28 16:29 67.79039 15.36270 16998 ft 250 kts 23°
2026-04-28 16:30 67.80634 15.38102 17000 ft 250 kts 23°
2026-04-28 16:30 67.82229 15.39931 17000 ft 250 kts 23°
2026-04-28 16:30 67.83831 15.41770 17000 ft 251 kts 23°
2026-04-28 16:30 67.85435 15.43617 16988 ft 252 kts 23°
2026-04-28 16:31 67.87053 15.45451 16945 ft 254 kts 22°
2026-04-28 16:31 67.88692 15.47275 16892 ft 256 kts 22°
2026-04-28 16:31 67.90343 15.49103 16844 ft 258 kts 22°
2026-04-28 16:31 67.92007 15.50939 16798 ft 259 kts 22°
2026-04-28 16:32 67.93703 15.52810 16753 ft 261 kts 22°
2026-04-28 16:32 67.97060 15.56523 16648 ft 262 kts 22°
2026-04-28 16:32 67.98610 15.58956 16572 ft 261 kts 46°
2026-04-28 16:33 67.99790 15.62580 16498 ft 258 kts 39°
2026-04-28 16:33 68.00284 15.63513 16480 ft 256 kts 31°
2026-04-28 16:33 68.02919 15.67339 16352 ft 259 kts 29°
2026-04-28 16:33 68.03949 15.68956 16299 ft 261 kts 32°
2026-04-28 16:34 68.05489 15.71729 15943 ft 275 kts 36°
2026-04-28 16:34 68.07080 15.74876 15253 ft 295 kts 37°
2026-04-28 16:34 68.08768 15.78272 14500 ft 311 kts 37°
2026-04-28 16:34 68.10520 15.81788 14043 ft 315 kts 37°
2026-04-28 16:35 68.12233 15.85143 13613 ft 289 kts 36°
2026-04-28 16:35 68.13796 15.88179 12979 ft 269 kts 36°
2026-04-28 16:35 68.15281 15.91063 12226 ft 259 kts 36°
2026-04-28 16:35 68.16719 15.93859 11486 ft 252 kts 36°
2026-04-28 16:36 68.18147 15.96646 10716 ft 247 kts 36°
2026-04-28 16:36 68.19531 15.99352 9960 ft 243 kts 36°
2026-04-28 16:36 68.20887 16.02005 9210 ft 240 kts 36°
2026-04-28 16:36 68.22230 16.04636 8450 ft 237 kts 36°
2026-04-28 16:37 68.23546 16.07223 7835 ft 230 kts 36°
2026-04-28 16:37 68.24817 16.09721 7391 ft 217 kts 36°
2026-04-28 16:37 68.26009 16.12065 6943 ft 209 kts 36°
2026-04-28 16:38 68.28502 16.16860 6329 ft 241 kts 35°
2026-04-28 16:38 68.29909 16.19595 6078 ft 257 kts 36°
2026-04-28 16:38 68.31406 16.22555 5803 ft 268 kts 36°
2026-04-28 16:38 68.32935 16.25585 5520 ft 276 kts 36°
2026-04-28 16:39 68.34511 16.28715 5255 ft 278 kts 36°
2026-04-28 16:39 68.36053 16.31792 5124 ft 264 kts 36°
2026-04-28 16:39 68.37408 16.34530 5078 ft 227 kts 37°
2026-04-28 16:39 68.38690 16.37114 5013 ft 231 kts 36°
2026-04-28 16:40 68.39962 16.39694 4951 ft 222 kts 40°
2026-04-28 16:40 68.40746 16.43039 4897 ft 209 kts 75°
2026-04-28 16:40 68.41060 16.46904 4550 ft 208 kts 78°
2026-04-28 16:40 68.41354 16.50350 4263 ft 168 kts 78°
2026-04-28 16:41 68.41614 16.53334 3836 ft 152 kts 74°
2026-04-28 16:41 68.42051 16.55812 3416 ft 144 kts 57°
2026-04-28 16:41 68.42563 16.58076 3081 ft 134 kts 60°
2026-04-28 16:41 68.43066 16.60144 2735 ft 128 kts 58°
2026-04-28 16:42 68.43535 16.62195 2332 ft 130 kts 56°
2026-04-28 16:42 68.44170 16.63844 2031 ft 128 kts 37°
2026-04-28 16:42 68.44944 16.65288 1778 ft 134 kts 33°
2026-04-28 16:42 68.45725 16.66522 1429 ft 133 kts 29°
2026-04-28 16:43 68.46584 16.67632 896 ft 137 kts 17°
2026-04-28 16:43 68.47544 16.67973 316 ft 139 kts 355°
2026-04-28 16:43 68.48448 16.67888 108 ft 118 kts 355°
2026-04-28 16:43 68.49131 16.67813 92 ft 47 kts 356°
2026-04-28 16:44 68.49233 16.67813 91 ft 1 kts 51°
2026-04-28 16:44 68.49219 16.67852 94 ft 4 kts 167°
2026-04-28 16:44 68.49195 16.67872 91 ft 5 kts 147°
2026-04-28 16:44 68.49177 16.68068 89 ft 15 kts 85°
2026-04-28 16:45 68.49125 16.68180 85 ft 10 kts 177°
2026-04-28 16:45 68.49047 16.68193 87 ft 11 kts 175°
2026-04-28 16:45 68.48948 16.68217 86 ft 18 kts 171°
2026-04-28 16:45 68.48891 16.68365 87 ft 10 kts 86°
2026-04-28 16:46 68.48896 16.68547 90 ft 10 kts 75°
2026-04-28 16:46 68.48965 16.68619 88 ft 11 kts
2026-04-28 16:46 68.48980 16.68616 88 ft 0 kts 355°